K7ZQU-7 Weather Reports


Display with metric or nautical units.
time (UTC)temp
F
wind
direction
speed
MPH
gust
MPH
rain 1hr
in
rain 24hr
in
rain mn
in
humidity
%
barometer
mb
20260905224617 51 293 0.0 0.0 0.00 0.45 0.02 66 1015.1
20260905224115 51 278 0.0 0.0 0.00 0.45 0.02 67 1015.3
20260905223616 51 278 0.0 0.0 0.00 0.45 0.02 66 1015.2
20260905223117 51 278 0.0 0.0 0.00 0.45 0.02 66 1015.3
20260905222618 51 278 0.0 0.0 0.00 0.45 0.02 66 1015.3
20260905222119 51 278 1.0 0.0 0.00 0.45 0.02 68 1015.3
20260905221617 51 284 0.0 0.0 0.00 0.45 0.02 68 1015.3
20260905221119 51 274 2.0 1.0 0.00 0.45 0.02 68 1015.3
20260905220620 51 284 2.0 2.0 0.00 0.45 0.02 68 1015.3
20260905220121 51 311 2.0 2.0 0.00 0.45 0.02 67 1015.3
20260905215622 52 333 0.0 1.0 0.01 0.45 0.02 67 1015.3
20260905215120 52 266 4.0 2.0 0.01 0.45 0.02 65 1015.3
20260905214621 52 297 2.0 2.0 0.01 0.45 0.02 66 1015.2
20260905214122 52 312 3.0 3.0 0.01 0.45 0.02 68 1015.4
20260905213623 52 314 1.0 4.0 0.01 0.45 0.02 69 1015.2
20260905213124 51 284 4.0 5.0 0.01 0.45 0.02 66 1015.3
20260905212622 50 56 3.0 3.0 0.01 0.45 0.02 66 1015.3
20260905212124 50 28 1.0 2.0 0.01 0.45 0.02 66 1015.3
20260905211624 51 311 1.0 0.0 0.01 0.45 0.02 66 1015.3
20260905211126 51 66 2.0 3.0 0.01 0.45 0.02 70 1015.4
20260905210627 50 49 0.0 0.0 0.01 0.45 0.02 73 1015.4
20260905210125 50 287 0.0 0.0 0.01 0.45 0.02 72 1015.4
20260905205626 50 226 0.0 0.0 0.00 0.45 0.02 73 1015.4
20260905205127 50 217 0.0 1.0 0.00 0.45 0.01 70 1015.6
20260905204628 51 211 1.0 1.0 0.00 0.45 0.01 67 1015.6
20260905204129 51 203 2.0 0.0 0.00 0.45 0.01 66 1015.7
20260905203627 51 263 0.0 1.0 0.00 0.45 0.01 67 1015.3
20260905203128 51 281 0.0 1.0 0.00 0.45 0.01 66 1015.3
20260905202629 51 205 1.0 0.0 0.00 0.45 0.01 66 1015.3
20260905202130 50 226 2.0 1.0 0.00 0.45 0.01 69 1015.6
20260905201631 50 180 2.0 3.0 0.00 0.45 0.01 68 1015.4
20260905201129 49 107 1.0 1.0 0.00 0.45 0.01 69 1015.6
20260905200631 49 194 1.0 0.0 0.00 0.45 0.01 69 1015.3
20260905200132 50 129 1.0 2.0 0.00 0.45 0.01 68 1015.3
20260905195633 50 236 2.0 2.0 0.00 0.45 0.01 66 1015.4
20260905195134 50 183 3.0 1.0 0.00 0.45 0.01 65 1015.7
20260905194632 51 197 2.0 3.0 0.00 0.45 0.01 64 1015.4
20260905194133 50 218 4.0 3.0 0.00 0.45 0.01 65 1015.4
20260905193634 50 179 5.0 3.0 0.00 0.45 0.01 65 1015.4
20260905193135 50 75 3.0 4.0 0.00 0.45 0.01 67 1015.6
20260905192636 50 105 5.0 4.0 0.00 0.45 0.01 65 1015.3
20260905192135 50 124 2.0 6.0 0.00 0.45 0.01 66 1015.6
20260905191636 50 79 1.0 1.0 0.00 0.45 0.01 69 1015.3
20260905191137 50 236 3.0 4.0 0.00 0.45 0.01 67 1015.6
20260905190638 50 124 2.0 2.0 0.00 0.45 0.01 64 1015.3
20260905190139 50 180 4.0 1.0 0.00 0.45 0.01 64 1015.3
20260905185637 50 343 1.0 2.0 0.00 0.45 0.01 63 1015.2
20260905185139 50 153 4.0 2.0 0.00 0.45 0.01 64 1015.2
20260905184639 50 35 2.0 4.0 0.00 0.45 0.01 64 1015.1
20260905184141 50 124 2.0 3.0 0.00 0.45 0.01 65 1015.1
20260905183641 50 42 2.0 2.0 0.00 0.45 0.01 64 1015.2
20260905183140 50 45 4.0 1.0 0.00 0.45 0.01 66 1015.2
20260905182641 49 124 1.0 5.0 0.00 0.45 0.01 67 1015.2
20260905182142 49 205 2.0 3.0 0.00 0.45 0.01 66 1015.2
20260905181643 49 146 4.0 4.0 0.00 0.45 0.01 71 1015.2
20260905181144 49 32 1.0 5.0 0.00 0.45 0.01 74 1015.2
20260905180642 49 312 4.0 2.0 0.00 0.45 0.01 72 1015.2
20260905180143 49 104 2.0 0.0 0.00 0.45 0.01 74 1015.1
20260905175644 48 113 2.0 2.0 0.00 0.45 0.01 73 1015.1
20260905175145 48 59 2.0 3.0 0.00 0.45 0.01 74 1015.0
20260905174646 48 141 2.0 0.0 0.00 0.45 0.01 73 1015.0
20260905174144 47 162 2.0 3.0 0.00 0.45 0.01 73 1015.0
20260905173645 47 274 0.0 0.0 0.00 0.45 0.01 76 1015.0
20260905173146 47 188 1.0 0.0 0.00 0.45 0.01 76 1015.0
20260905172647 47 117 1.0 2.0 0.00 0.45 0.01 73 1015.0
20260905172148 47 83 1.0 1.0 0.00 0.45 0.01 73 1015.0
20260905171646 47 328 0.0 2.0 0.00 0.45 0.01 74 1015.0
20260905171147 47 203 4.0 4.0 0.00 0.45 0.01 71 1015.0
20260905170648 47 11 1.0 1.0 0.00 0.45 0.01 74 1014.8
20260905170149 47 60 0.0 0.0 0.00 0.45 0.01 72 1014.8
20260905165651 47 193 3.0 3.0 0.00 0.45 0.01 76 1015.0
20260905165149 47 205 1.0 1.0 0.00 0.45 0.01 77 1015.0
20260905164650 47 127 1.0 4.0 0.00 0.45 0.01 80 1014.8
20260905164151 47 163 1.0 2.0 0.00 0.45 0.01 78 1014.8
20260905163652 46 56 0.0 0.0 0.00 0.45 0.01 76 1014.8
20260905163153 46 56 0.0 0.0 0.00 0.45 0.01 78 1014.8
20260905162651 45 56 0.0 0.0 0.00 0.45 0.01 78 1014.8
20260905162152 45 56 0.0 0.0 0.00 0.45 0.01 80 1014.8
20260905161653 45 56 0.0 0.0 0.00 0.45 0.01 78 1014.8
20260905161154 45 281 0.0 0.0 0.00 0.45 0.01 78 1014.8
20260905160655 45 281 0.0 0.0 0.00 0.45 0.01 77 1014.8
20260905160153 45 281 0.0 0.0 0.00 0.45 0.01 77 1014.8
20260905155654 45 281 0.0 0.0 0.00 0.45 0.01 84 1014.8
20260905155155 45 281 0.0 0.0 0.00 0.45 0.01 88 1014.8
20260905154656 44 281 0.0 0.0 0.00 0.45 0.01 92 1014.8
20260905154156 43 281 0.0 0.0 0.00 0.45 0.01 95 1015.0
20260905153655 42 281 0.0 0.0 0.00 0.45 0.01 98 1015.0
20260905153155 41 281 0.0 0.0 0.00 0.45 0.01 98 1015.0
20260905152656 40 281 0.0 0.0 0.00 0.45 0.01 99 1015.0
20260905152157 39 281 0.0 0.0 0.00 0.45 0.01 99 1015.1
20260905151658 38 281 0.0 0.0 0.00 0.45 0.01 98 1015.0
20260905151157 37 281 0.0 0.0 0.00 0.45 0.01 98 1015.0
20260905150658 37 281 0.0 0.0 0.00 0.45 0.01 98 1015.0
20260905150158 36 281 0.0 0.0 0.00 0.45 0.01 98 1015.0
20260905145659 35 281 0.0 0.0 0.00 0.45 0.01 98 1015.0
20260905145200 35 281 0.0 0.0 0.00 0.45 0.01 97 1015.0
20260905144658 35 281 0.0 0.0 0.00 0.45 0.01 97 1015.0
20260905144159 35 281 0.0 0.0 0.00 0.45 0.01 97 1015.0
20260905143701 35 281 0.0 0.0 0.00 0.45 0.01 97 1015.0
20260905143202 36 281 0.0 0.0 0.00 0.45 0.01 97 1014.8
20260905142703 36 281 0.0 0.0 0.00 0.45 0.01 97 1014.8
20260905142201 36 281 0.0 0.0 0.00 0.45 0.01 97 1014.7
20260905141702 36 281 0.0 0.0 0.00 0.45 0.01 97 1014.7
20260905141203 36 281 0.0 0.0 0.00 0.45 0.01 97 1014.7
20260905140704 36 281 0.0 0.0 0.00 0.45 0.01 97 1014.6
20260905140205 36 281 0.0 0.0 0.00 0.45 0.01 97 1014.6
20260905135703 36 281 0.0 0.0 0.00 0.45 0.01 97 1014.6
20260905135204 36 281 0.0 0.0 0.00 0.45 0.01 97 1014.5
20260905134705 36 281 0.0 0.0 0.00 0.45 0.01 97 1014.6
20260905134206 36 281 0.0 0.0 0.00 0.45 0.01 97 1014.6
20260905133707 37 281 0.0 0.0 0.00 0.45 0.01 97 1014.6
20260905133205 36 281 0.0 0.0 0.00 0.45 0.01 97 1014.6
20260905132706 36 281 0.0 0.0 0.00 0.45 0.01 97 1014.6
20260905132207 36 281 0.0 0.0 0.00 0.45 0.01 97 1014.5
20260905131709 36 281 0.0 0.0 0.00 0.45 0.01 97 1014.5
20260905131210 36 281 0.0 0.0 0.00 0.45 0.01 97 1014.5
20260905130708 36 281 0.0 0.0 0.00 0.45 0.01 97 1014.5
20260905130209 36 281 0.0 0.0 0.00 0.45 0.01 97 1014.5
20260905125710 36 281 0.0 0.0 0.00 0.45 0.01 97 1014.5
20260905125211 36 281 0.0 0.0 0.00 0.45 0.01 97 1014.4
20260905124712 35 281 0.0 0.0 0.00 0.45 0.01 97 1014.4
20260905124210 35 281 0.0 0.0 0.00 0.45 0.01 97 1014.5
20260905123711 35 281 0.0 0.0 0.00 0.45 0.01 97 1014.5
20260905123303 35 281 0.0 0.0 0.00 0.45 0.01 97 1014.5
20260905123212 35 281 0.0 0.0 0.00 0.45 0.01 97 1014.5
20260905122714 35 281 0.0 0.0 0.00 0.45 0.01 97 1014.5
20260905122214 35 281 0.0 0.0 0.00 0.45 0.01 97 1014.5
20260905121713 35 281 0.0 0.0 0.00 0.45 0.01 97 1014.5
20260905121214 35 281 0.0 0.0 0.00 0.45 0.01 97 1014.5
20260905120715 35 281 0.0 0.0 0.00 0.45 0.01 97 1014.5
20260905120216 36 281 0.0 0.0 0.00 0.45 0.01 96 1014.5
20260905115717 36 281 0.0 0.0 0.00 0.45 0.01 96 1014.5
20260905115215 36 281 0.0 0.0 0.00 0.45 0.01 96 1014.6
20260905114716 36 281 0.0 0.0 0.00 0.45 0.01 96 1014.6
20260905114217 36 281 0.0 0.0 0.00 0.45 0.01 96 1014.6
20260905113718 37 281 0.0 0.0 0.00 0.45 0.01 96 1014.6
20260905113219 37 281 0.0 0.0 0.00 0.45 0.01 96 1014.6
20260905112718 37 281 0.0 0.0 0.00 0.45 0.01 96 1014.7
20260905112219 38 281 0.0 0.0 0.00 0.45 0.01 96 1014.8
20260905111720 38 281 0.0 0.0 0.00 0.45 0.01 96 1014.8
20260905111221 38 281 0.0 0.0 0.00 0.45 0.01 96 1014.8
20260905110722 38 281 0.0 0.0 0.00 0.45 0.01 96 1014.7
20260905110220 39 281 0.0 0.0 0.00 0.45 0.01 97 1014.8
20260905105721 39 281 0.0 0.0 0.01 0.45 0.01 97 1014.8
20260905105223 39 281 0.0 0.0 0.01 0.45 0.01 97 1015.0
20260905104724 39 281 0.0 0.0 0.01 0.45 0.01 97 1015.1
20260905104225 39 281 0.0 0.0 0.01 0.45 0.01 97 1015.1
20260905103723 39 281 0.0 0.0 0.01 0.45 0.01 97 1015.1
20260905103224 39 281 0.0 0.0 0.01 0.45 0.01 97 1015.1
20260905102726 39 281 0.0 0.0 0.01 0.45 0.01 97 1015.1
20260905102226 39 281 0.0 0.0 0.01 0.45 0.01 97 1015.1
20260905101728 39 281 0.0 0.0 0.01 0.45 0.01 97 1015.1
20260905101226 39 281 0.0 0.0 0.01 0.45 0.01 97 1015.1
20260905100727 39 281 0.0 0.0 0.01 0.45 0.01 97 1015.1
20260905100228 39 281 0.0 0.0 0.01 0.45 0.01 97 1015.1
20260905095729 39 281 0.0 0.0 0.00 0.45 0.01 97 1015.1
20260905095230 39 281 0.0 0.0 0.00 0.45 0.01 97 1015.1
20260905094729 39 281 0.0 0.0 0.00 0.45 0.01 97 1015.2
20260905094230 39 281 0.0 0.0 0.00 0.45 0.01 97 1015.2
20260905093731 39 281 0.0 0.0 0.00 0.45 0.01 97 1015.2
20260905093232 39 281 0.0 0.0 0.00 0.45 0.01 97 1015.2
20260905092733 39 281 0.0 0.0 0.00 0.45 0.01 97 1015.2
20260905092231 40 281 0.0 0.0 0.00 0.45 0.00 97 1015.2
20260905091733 40 281 0.0 0.0 0.00 0.45 0.00 97 1015.2
20260905091234 39 281 0.0 0.0 0.00 0.45 0.00 97 1015.3
20260905090735 39 281 0.0 0.0 0.00 0.45 0.00 97 1015.3
20260905090236 39 281 0.0 0.0 0.00 0.45 0.00 97 1015.2
20260905085734 39 281 0.0 0.0 0.00 0.45 0.00 97 1015.2
20260905085235 39 281 0.0 0.0 0.00 0.45 0.00 97 1015.2
20260905084737 39 281 0.0 0.0 0.00 0.45 0.00 96 1015.3
20260905084238 39 281 0.0 0.0 0.00 0.45 0.00 96 1015.2
20260905083739 39 281 0.0 0.0 0.00 0.45 0.00 96 1015.2
20260905083237 39 281 0.0 0.0 0.00 0.45 0.00 96 1015.2
20260905082738 39 281 0.0 0.0 0.00 0.45 0.00 96 1015.1
20260905082239 39 281 0.0 0.0 0.00 0.45 0.00 96 1015.1
20260905081740 40 281 0.0 0.0 0.00 0.45 0.00 96 1015.0
20260905081242 40 281 0.0 0.0 0.00 0.45 0.00 97 1015.0
20260905080740 40 281 0.0 0.0 0.00 0.45 0.00 97 1015.0
20260905080241 40 281 0.0 0.0 0.00 0.45 0.00 97 1015.0
20260905075742 40 311 0.0 5.0 0.00 0.45 0.00 97 1015.0
20260905075243 39 198 0.0 0.0 0.00 0.45 0.00 97 1015.0
20260905074744 39 312 0.0 0.0 0.00 0.45 0.00 97 1014.8
20260905074242 39 312 0.0 0.0 0.00 0.45 0.00 97 1014.8
20260905073743 39 312 0.0 0.0 0.00 0.45 0.00 97 1014.7
20260905073244 38 176 0.0 0.0 0.00 0.45 0.00 97 1014.8
20260905072745 38 255 0.0 0.0 0.00 0.45 0.00 97 1014.7
20260905072246 38 24 0.0 2.0 0.00 0.45 0.00 97 1014.7
20260905071745 38 24 0.0 0.0 0.00 0.45 0.00 96 1014.6
20260905071246 37 24 0.0 0.0 0.00 0.45 0.00 96 1014.7
20260905070747 37 24 0.0 0.0 0.00 0.45 0.00 96 1014.6
20260905070248 37 24 0.0 0.0 0.00 0.45 0.00 96 1014.6
20260905065749 37 24 0.0 0.0 0.00 0.21 0.45 96 1014.6
20260905065247 38 24 0.0 0.0 0.00 0.21 0.45 95 1014.5
20260905064748 38 24 0.0 0.0 0.00 0.21 0.45 95 1014.5
20260905064249 38 24 0.0 0.0 0.00 0.21 0.45 95 1014.5
20260905063751 38 24 0.0 0.0 0.00 0.21 0.45 95 1014.5
20260905063252 39 24 0.0 0.0 0.00 0.21 0.45 96 1014.5
20260905062758 39 24 0.0 0.0 0.00 0.21 0.45 95 1014.6
20260905062251 39 24 0.0 0.0 0.00 0.21 0.45 95 1014.6
20260905061752 39 24 0.0 0.0 0.00 0.21 0.45 96 1014.5
20260905061253 39 24 0.0 0.0 0.00 0.21 0.45 96 1014.6
20260905060754 39 24 0.0 0.0 0.00 0.21 0.45 96 1014.6
20260905055754 39 24 0.0 0.0 0.00 0.21 0.45 96 1014.7
20260905055255 39 24 0.0 0.0 0.00 0.21 0.45 97 1014.8
20260905054756 39 24 0.0 0.0 0.00 0.21 0.45 97 1014.8
20260905054257 39 24 0.0 0.0 0.00 0.21 0.45 97 1014.7
20260905053755 39 24 0.0 0.0 0.00 0.21 0.45 96 1014.7
20260905053257 39 24 0.0 0.0 0.00 0.21 0.45 96 1014.7
20260905052758 39 24 0.0 0.0 0.00 0.21 0.45 96 1014.7
20260905052259 39 24 0.0 0.0 0.00 0.21 0.45 96 1014.7
20260905051800 39 24 0.0 0.0 0.00 0.21 0.45 96 1014.7
20260905051258 39 24 0.0 0.0 0.00 0.21 0.45 96 1014.7
20260905050759 39 24 0.0 0.0 0.00 0.21 0.45 96 1014.8
20260905050300 39 24 0.0 0.0 0.00 0.21 0.45 96 1014.8
20260905045801 39 24 0.0 0.0 0.00 0.21 0.45 96 1014.8
20260905045305 39 24 0.0 0.0 0.00 0.21 0.45 96 1014.8
20260905044801 40 24 0.0 0.0 0.00 0.21 0.45 96 1014.8
20260905044302 40 24 0.0 0.0 0.00 0.21 0.45 96 1014.8
20260905043803 40 24 0.0 0.0 0.00 0.21 0.45 96 1015.0
20260905043304 40 24 0.0 0.0 0.00 0.21 0.45 96 1014.8
20260905042805 40 24 0.0 0.0 0.00 0.21 0.45 96 1014.8
20260905042306 40 24 0.0 0.0 0.00 0.21 0.45 96 1015.0
20260905041805 40 24 0.0 0.0 0.00 0.21 0.45 96 1015.0
20260905041306 40 24 0.0 0.0 0.00 0.21 0.45 96 1015.0
20260905040807 40 24 0.0 0.0 0.00 0.21 0.45 96 1015.1
20260905040308 40 24 0.0 0.0 0.00 0.21 0.45 96 1015.1
20260905035806 40 24 0.0 0.0 0.06 0.21 0.45 96 1015.0
20260905035307 40 24 0.0 0.0 0.06 0.21 0.45 96 1014.8
20260905034808 40 24 0.0 0.0 0.06 0.21 0.45 96 1014.7
20260905034309 40 24 0.0 0.0 0.06 0.21 0.45 96 1014.8
20260905033810 40 24 0.0 0.0 0.06 0.21 0.45 96 1014.8
20260905033309 40 24 0.0 0.0 0.06 0.21 0.45 96 1014.7
20260905032810 39 24 0.0 0.0 0.06 0.21 0.45 96 1014.7
20260905032311 39 24 0.0 0.0 0.06 0.21 0.45 96 1014.7
20260905031812 39 24 0.0 0.0 0.06 0.21 0.45 96 1014.7
20260905031313 40 24 0.0 0.0 0.06 0.21 0.45 96 1014.6
20260905030811 40 24 0.0 0.0 0.06 0.21 0.45 96 1014.6
20260905030312 40 24 0.0 0.0 0.06 0.21 0.45 96 1014.6
20260905025813 40 24 0.0 0.0 0.07 0.21 0.45 95 1014.6
20260905025314 40 24 0.0 0.0 0.07 0.21 0.45 95 1014.6
20260905024815 40 24 0.0 0.0 0.07 0.21 0.45 95 1014.5
20260905024314 40 24 0.0 0.0 0.07 0.21 0.45 95 1014.4
20260905023815 40 24 0.0 0.0 0.07 0.21 0.45 95 1014.4
20260905023316 40 24 0.0 0.0 0.07 0.21 0.45 95 1014.4
20260905022817 40 24 0.0 0.0 0.07 0.21 0.45 95 1014.4
20260905022318 40 24 0.0 0.0 0.07 0.21 0.45 95 1014.4
20260905021817 40 24 0.0 0.0 0.07 0.21 0.45 95 1014.4
20260905021318 40 24 0.0 0.0 0.07 0.21 0.44 95 1014.3
20260905020819 41 297 0.0 0.0 0.07 0.21 0.43 95 1014.4
20260905020320 41 290 0.0 2.0 0.07 0.21 0.42 95 1014.4
20260905015821 41 314 1.0 2.0 0.07 0.21 0.39 95 1014.4
20260905015319 41 262 2.0 0.0 0.07 0.21 0.38 95 1014.5
20260905014820 41 281 2.0 9.0 0.07 0.21 0.37 95 1014.4
20260905014321 41 42 0.0 0.0 0.07 0.21 0.37 95 1014.3
20260905013822 41 42 0.0 0.0 0.07 0.21 0.37 95 1014.0
20260905013324 41 42 0.0 0.0 0.07 0.21 0.37 95 1013.8
20260905012822 41 42 0.0 0.0 0.07 0.21 0.37 95 1013.7
20260905012323 41 42 0.0 0.0 0.07 0.21 0.37 93 1013.7
20260905011824 41 42 0.0 0.0 0.07 0.21 0.36 92 1013.7
20260905011325 41 42 0.0 0.0 0.07 0.21 0.35 91 1013.7
20260905010826 41 42 0.0 0.0 0.07 0.21 0.35 90 1013.5
20260905005825 42 3 1.0 1.0 0.07 0.21 0.32 88 1013.7
20260905005326 42 253 2.0 1.0 0.00 0.21 0.29 90 1013.7
20260905004827 42 257 0.0 0.0 0.00 0.21 0.27 90 1013.4
20260905004329 42 257 0.0 0.0 0.00 0.21 0.26 89 1013.3
20260905003827 42 204 0.0 2.0 0.00 0.21 0.25 88 1013.0
20260905003328 42 121 0.0 0.0 0.00 0.21 0.25 88 1012.7
20260905002330 42 108 2.0 1.0 0.00 0.21 0.25 88 1012.5
20260905001831 42 75 1.0 1.0 0.00 0.21 0.25 88 1012.4
20260905001329 43 129 2.0 0.0 0.00 0.21 0.25 88 1012.4
20260905000830 43 42 2.0 2.0 0.00 0.21 0.25 88 1012.4
20260905000333 43 73 1.0 0.0 0.00 0.21 0.25 88 1012.4
20260904235832 43 87 1.0 1.0 0.00 0.21 0.25 88 1012.5
20260904235333 44 103 1.0 2.0 0.00 0.21 0.25 86 1012.5
20260904234831 44 165 3.0 1.0 0.00 0.21 0.25 85 1012.4
20260904234332 45 66 2.0 2.0 0.00 0.21 0.25 87 1012.4
20260904233833 46 87 2.0 2.0 0.00 0.21 0.25 81 1012.4
20260904233334 47 294 0.0 0.0 0.00 0.21 0.25 79 1012.2
20260904232835 47 177 0.0 1.0 0.00 0.21 0.25 76 1012.0
20260904232333 47 217 0.0 0.0 0.00 0.21 0.25 76 1011.8
20260904231335 47 188 0.0 0.0 0.00 0.21 0.25 76 1011.9
20260904230836 48 253 1.0 4.0 0.00 0.21 0.25 76 1011.9
20260904230337 48 181 2.0 3.0 0.00 0.21 0.25 74 1011.8
20260904225835 48 239 1.0 3.0 0.00 0.21 0.25 74 1011.8
20260904225336 48 203 2.0 1.0 0.00 0.21 0.25 71 1011.8